Regional Weather Roundup
Issued by NWS

Home | Current Version | Previous Version | Text Only | Print | Product List | Glossary Off
Versions: 1 2 3 4 5 6 7 8 9 10 11 12 13 14 15 16 17 18 19 20 21 22 23 24 25 26 27 28 29 30 31 32 33 34 35 36 37 38 39 40 41 42 43 44 45 46 47 48 49 50

000
ASUS43 KIND 310409
RWRIN

WEATHER ROUNDUP FOR INDIANA
NATIONAL WEATHER SERVICE INDIANAPOLIS IN
1200 AM EDT FRI OCT 31 2014

NOTE: "FAIR" INDICATES FEW OR NO CLOUDS BELOW 12,000 FEET WITH NO
SIGNIFICANT WEATHER AND/OR OBSTRUCTIONS TO VISIBILITY.

* - STATION DOES NOT REPORT WEATHER SUCH AS PRECIPITATION OR FOG.

+ - STATION NOT QUALITY CONTROLLED BY THE NATIONAL WEATHER SERVICE.
    USE DATA WITH CAUTION...ESPECIALLY DEWPOINT AND RELATIVE
    HUMIDITY OBSERVATIONS.

INZ001>003-010>013-019-020-310500-
NORTHWEST INDIANA

CITY           SKY/WX    TMP DP  RH WIND       PRES   REMARKS
GARY /AIRPORT/ MOCLDY    48  37  65 W5        30.05F
KNOX *+        MOCLDY    41  37  84 SW5       30.03F
LA PORTE +     PTCLDY    43  37  79 SW5       30.04F
MICHIGAN CITY+ CLOUDY    43  34  70 SW5       30.04F
MONTICELLO +   PTCLDY    40  37  89 CALM      30.05S
RENSSELAER +   MOCLDY    43  39  87 CALM      30.06S
VALPARAISO     MOCLDY    44  36  73 W6        30.04F

$$

LMZ046-743>745-310500-
SOUTHERN LAKE MICHIGAN

STATION/POSITION TIME  TEMP WIND        PRES
                       AIR  DIR/SP/G
                 (UTC) (F)  (DEG/KT/KT) (MB)
MICHIGAN CITY    0400   50  250/ 14/ 17   N/A

$$

INZ004-005-014>016-021>024-310500-
NORTH CENTRAL INDIANA

CITY           SKY/WX    TMP DP  RH WIND       PRES   REMARKS
GOSHEN         CLOUDY    45  37  73 SW5       30.02F
LOGANSPORT +   PTCLDY    37  34  87 SW3       30.05F
PERU/GRISSOM   MOCLDY    44  39  83 W2        30.04S
ROCHESTER +    MOCLDY    46  37  71 SW3       30.04F
SOUTH BEND     MOCLDY    45  35  68 SW7       30.03F
WARSAW +       CLOUDY    43  36  75 CALM      30.04S

$$

INZ006>009-017-018-025>027-310500-
NORTHEAST INDIANA

CITY           SKY/WX    TMP DP  RH WIND       PRES   REMARKS
ANGOLA *+      CLOUDY    45  36  70 SW3       30.02F
AUBURN +       CLOUDY    43  34  70 CALM      30.04S
FORT WAYNE     CLOUDY    43  38  82 S3        30.04F
HUNTINGTON +   MOCLDY   N/A N/A N/A CALM      30.03F

$$

INZ028-029-035-036-043>045-051>053-310500-
WEST CENTRAL INDIANA

CITY           SKY/WX    TMP DP  RH WIND       PRES   REMARKS
GREENCASTLE +  CLOUDY    45  41  87 CALM      30.06F
LAFAYETTE      MOCLDY    43  40  89 W3        30.05F
TERRE HAUTE    LGT RAIN  47  44  90 CALM      30.07F

$$

INZ030>032-037>040-046>048-054>057-064-065-310500-
CENTRAL INDIANA

CITY           SKY/WX    TMP DP  RH WIND       PRES   REMARKS
CP ATTERBURY + DRIZZLE   45  41  87 CALM      30.06S
FRANKFORT +    MOCLDY    44  40  85 W3        30.06F
INDIANAPOLIS   DRIZZLE   47  39  74 W6        30.05S
-EAGLE CREEK   CLOUDY    48  38  68 W3        30.04F
KOKOMO *+      PTCLDY    43  36  75 N3        30.05S
MARION +       CLOUDY    44  36  72 CALM      30.04F
MT COMFORT *+  CLOUDY    46  36  66 W3        30.05S
SHELBYVILLE    LGT RAIN  48  41  76 CALM      30.04S
ZIONSVILLE +   CLOUDY    46  38  75 CALM      30.05F

$$

INZ033-034-041-042-049-050-058-059-310500-
EAST CENTRAL INDIANA

CITY           SKY/WX    TMP DP  RH WIND       PRES   REMARKS
MUNCIE         CLOUDY    46  35  65 S5        30.04F

$$

INZ060-061-067>069-081>083-085>088-310500-
SOUTHWEST INDIANA

CITY           SKY/WX    TMP DP  RH WIND       PRES   REMARKS
EVANSVILLE     CLOUDY    51  44  77 CALM      30.05F
HUNTINGBURG *+ CLOUDY    48  43  81 E5        30.06F
WASHINGTON +   DRIZZLE   47  44  90 NE6       30.06S

$$

INZ062-063-066-070>080-084-089>092-310500-
SOUTH CENTRAL AND SOUTHEAST INDIANA

CITY           SKY/WX    TMP DP  RH WIND       PRES   REMARKS
BLOOMINGTON    CLOUDY    47  42  83 CALM      30.06S
NORTH VERNON + CLOUDY    46  43  87 CALM      30.05
SEYMOUR +      CLOUDY    48  41  76 W3        30.05S

$$




USA.gov is the U.S. government's official web portal to all federal, state and local government web resources and services.